TimeCDT,TemperatureF,Dew PointF,Humidity,Sea Level PressureIn,VisibilityMPH,Wind Direction,Wind SpeedMPH,Gust SpeedMPH,PrecipitationIn,Events,Conditions,WindDirDegrees,DateUTC
12:53 AM,28.0,28.0,100,29.94,7.0,West,13.8,-,N/A,,Overcast,280,2013-03-11 05:53:00
1:53 AM,28.0,26.1,92,29.94,10.0,WNW,12.7,19.6,N/A,,Overcast,290,2013-03-11 06:53:00
2:11 AM,28.4,26.6,93,29.91,10.0,West,15.0,-,N/A,,Overcast,280,2013-03-11 07:11:00
2:53 AM,28.0,26.1,92,29.94,10.0,West,15.0,-,N/A,,Overcast,280,2013-03-11 07:53:00
3:06 AM,28.4,24.8,86,29.92,10.0,West,13.8,-,N/A,,Overcast,280,2013-03-11 08:06:00
3:22 AM,28.4,24.8,86,29.93,10.0,West,13.8,21.9,N/A,,Overcast,280,2013-03-11 08:22:00
3:53 AM,28.0,25.0,88,29.96,10.0,West,12.7,-,N/A,,Overcast,280,2013-03-11 08:53:00
4:53 AM,27.0,24.1,89,29.95,10.0,West,13.8,-,N/A,,Overcast,280,2013-03-11 09:53:00
5:53 AM,28.0,25.0,88,29.96,10.0,WNW,12.7,-,N/A,,Overcast,290,2013-03-11 10:53:00
6:19 AM,26.6,24.8,93,29.93,10.0,WNW,10.4,-,N/A,,Overcast,290,2013-03-11 11:19:00
6:53 AM,27.0,24.1,89,29.95,10.0,West,9.2,-,N/A,,Clear,280,2013-03-11 11:53:00
7:53 AM,26.1,24.1,92,29.96,10.0,West,10.4,-,N/A,,Partly Cloudy,280,2013-03-11 12:53:00
8:53 AM,28.0,24.1,85,29.98,10.0,West,15.0,21.9,N/A,,Mostly Cloudy,280,2013-03-11 13:53:00
9:53 AM,28.9,25.0,85,30.00,10.0,NW,11.5,-,N/A,,Overcast,310,2013-03-11 14:53:00
10:53 AM,30.0,26.1,85,30.00,10.0,WNW,11.5,-,N/A,,Overcast,290,2013-03-11 15:53:00
11:53 AM,32.0,26.1,79,30.00,10.0,WNW,12.7,-,N/A,,Mostly Cloudy,290,2013-03-11 16:53:00
12:53 PM,37.0,27.0,67,30.01,10.0,West,15.0,20.7,N/A,,Mostly Cloudy,270,2013-03-11 17:53:00
1:18 PM,37.4,28.4,70,29.97,10.0,West,11.5,-,N/A,,Scattered Clouds,280,2013-03-11 18:18:00
1:53 PM,39.0,27.0,62,29.98,10.0,West,10.4,18.4,N/A,,Partly Cloudy,280,2013-03-11 18:53:00
2:53 PM,41.0,25.0,53,29.97,10.0,West,11.5,-,N/A,,Clear,270,2013-03-11 19:53:00
3:53 PM,43.0,25.0,49,29.96,10.0,WNW,13.8,-,N/A,,Clear,300,2013-03-11 20:53:00
4:53 PM,44.1,23.0,43,29.97,10.0,West,15.0,19.6,N/A,,Clear,280,2013-03-11 21:53:00
5:53 PM,43.0,21.9,43,29.97,10.0,West,9.2,17.3,N/A,,Clear,280,2013-03-11 22:53:00
6:53 PM,42.1,19.9,41,29.98,10.0,WNW,8.1,-,N/A,,Clear,300,2013-03-11 23:53:00
7:53 PM,37.0,24.1,59,30.00,10.0,WSW,3.5,-,N/A,,Clear,250,2013-03-12 00:53:00
8:53 PM,36.0,21.9,57,30.01,10.0,WNW,3.5,-,N/A,,Clear,290,2013-03-12 01:53:00
9:53 PM,37.0,21.0,52,30.04,10.0,West,4.6,-,N/A,,Clear,280,2013-03-12 02:53:00
10:53 PM,34.0,21.9,61,30.05,10.0,WSW,3.5,-,N/A,,Clear,250,2013-03-12 03:53:00
11:53 PM,28.9,25.0,85,30.05,10.0,Calm,Calm,-,N/A,,Clear,0,2013-03-12 04:53:00